Regional Weather Roundup
Issued by NWS Charleston, SC

Home | Current Version | Previous Version | Text Only | Print | Product List | Glossary On
Versions: 1 2 3 4 5 6 7 8 9 10 11 12 13 14 15 16 17 18 19 20 21 22 23 24 25 26 27 28 29 30 31 32 33 34 35 36 37 38 39 40 41 42 43 44 45 46 47 48 49 50
000
ASUS42 KCHS 160925
RWRCHS

REGIONAL WEATHER ROUNDUP
NATIONAL WEATHER SERVICE CHARLESTON SC
500 AM EDT TUE SEP 16 2014

NOTE: "FAIR" INDICATES FEW OR NO CLOUDS BELOW 12,000 FEET WITH NO
SIGNIFICANT WEATHER AND/OR OBSTRUCTIONS TO VISIBILITY.

NOT ALL STATIONS ARE QUALITY CONTROLLED BY THE NATIONAL
WEATHER SERVICE. USE DATA WITH CAUTION...ESPECIALLY
DEWPOINT OBSERVATIONS.

SCZ027-030-031-034>040-042>050-161000-
...SOUTH CAROLINA...

CITY           SKY/WX    TMP DP  RH WIND       PRES   REMARKS
N CHARLESTON   FOG       75  73  93 NW3       30.06S VSB 1/2
WATERFRONT PRK   N/A     79 N/A N/A NW3         N/A
FORT JOHNSON   NOT AVBL
MOUNT PLEASANT FOG       73  73 100 CALM      30.06R VSB 1/4
JOHNS ISLAND   FOG       75  75 100 CALM      30.07R VSB 1/4
PINOPOLIS        N/A     77  73  88 CALM      30.00R
MONCKS CORNER  NOT AVBL
SUMMERVILLE    PTSUNNY   72  72 100 CALM      30.07F
BEAUFORT MCAS  MOCLDY    77  74  90 SW5       30.06R
BEAUFORT ARPT  PTSUNNY   77  77 100 CALM      30.05S
HILTON HEAD IS MOCLDY    75  75 100 CALM      30.07S FOG
GEORGETOWN     NOT AVBL
WALTERBORO     CLOUDY    73 N/A N/A CALM      30.07S
ORANGEBURG     CLOUDY    74  71  91 CALM      30.06F
BARNWELL       CLOUDY    73  73 100 CALM      30.07F FOG
AIKEN          LGT RAIN  72  72 100 CALM      30.10F
MANNING        CLOUDY    73 N/A N/A CALM      30.06S
KINGSTREE      NOT AVBL
COLUMBIA       CLOUDY    74  71  91 SW3       30.05F
SUMTER         MOCLDY    72  68  88 SW2       30.05S
FLORENCE       CLOUDY    73  70  90 S5        30.05F
MYRTLE BEACH   MOCLDY    72  66  83 CALM      30.05R
N MYRTLE BEACH MOCLDY    70  68  93 CALM      30.05S

$$

GAZ063-065-086>088-099>101-113>116-118-119-134-136>141-150-161000-
...GEORGIA...

CITY           SKY/WX    TMP DP  RH WIND       PRES   REMARKS
SAVANNAH ARPT  MOCLDY    73  72  94 NE5       30.06F
HUNTER AAF     MOCLDY    74  74 100 N5        30.04S
FORT STEWART   CLOUDY    73  73 100 W5        30.05S FOG
STATESBORO     NOT AVBL
SYLVANIA       PTSUNNY   73  72  98 CALM      30.07F FOG
CLAXTON        NOT AVBL
THOMSON        CLOUDY    73  73 100 CALM      30.12F
AUGUSTA-BUSH   CLOUDY    73  73 100 CALM      30.05F FOG
AUGUSTA-DANIEL LGT RAIN  74  72  93 CALM      30.07F FOG
SWAINSBORO     PTSUNNY   72  72 100 CALM      30.08S
VIDALIA        FOG       72  72 100 CALM      30.07S VSB 1/4
ALMA           PTCLDY    72  71  97 CALM      30.06S
WAYCROSS       CLOUDY    76  76  99 CALM      30.07S
JESUP            N/A     75  73  94 W3        30.08R
BRUNSWICK      CLOUDY    73  72  94 W3        30.07S
SAINT SIMONS   CLOUDY    75  72  90 VRB6      30.06R

$$

SCZ027-028-034-036>038-045-046-048>050-GAZ119-141-161000-
...LAKE AND SUPPLEMENTAL COASTAL OBSERVATIONS...

STATION/POSITION TIME  TEMP    WIND        PRES    WAVE   SWELL
                       AIR SEA DIR/SP/G            HT/PER HT/PER/DIR
                 (UTC) (F)     (DEG/KT/KT) (MB)    (FT/S) (FT/S/D)
UPR LAKE MARION  NOT AVBL
WINYAH BAY       0900   73     310/  1     1017.0S
LAKE MURRAY      0800   74     300/  3/  5 1017.6F
ACE BASIN NERRS  0900   73        CALM     1018.0S
FORT PULASKI     0900   76     300/  7/  8 1018.1R
SAPELO ISLAND    0900   76     270/  4     1018.0S

$$

ANZ835-935-AMZ111-154-330-350-352-354-374-450-454-472-161000-
...C-MAN AND BUOY OBSERVATIONS...

STATION/POSITION TIME  TEMP    WIND        PRES    WAVE   SWELL
                       AIR SEA DIR/SP/G            HT/PER HT/PER/DIR
                 (UTC) (F)     (DEG/KT/KT) (MB)    (FT/S) (FT/S/D)
FOLLY BEACH CMAN 0900   75     330/  3/  4 1018.4R
BUOY 41004       0900   81 83  280/  4/  6 1017.1R   2/ 8   2/ 8
BUOY 41008       0900   80 84  300/ 10/ 12 1017.9R   2/ 9   2/ 90/ 9
5E ST. MARYS GA  0900      84                N/A     2/ 8
FRYING PAN BUOY  NOT AVBL
BUOY 41025       0900   74     300/  6/  8 1017.3R   3/ 8   2/ 30/ 8
CAPE LOOKOUT NC  0900   76     220/  2/  2 1017.2F
BUOY 41002       0833   79 83  310/ 10/ 14 1017.8F   3/ 6   2/ 6
BUOY 41010       0900   83 85  260/  8/ 12 1018.1F   2/ 8   2/ 70/ 8
BUOY 41012       NOT AVBL
ST AUGUSTINE FL  0900   76     240/  6/  8 1018.8F
CAPERS NEARSHORE 0800   77     360/  6/  8   N/A
FRIPP NEARSHORE  NOT AVBL


$$



USA.gov is the U.S. government's official web portal to all federal, state and local government web resources and services.